Change the Weather History Date:

Tuesday, February 7, 2012

  Actual Average (KMVN) Record (KMVN)
Temperature  
Mean Temperature 36 °F -  
Max Temperature 48 °F 41 °F 64 °F (2013)
Min Temperature 24 °F 26 °F -9 °F (2014)
Degree Days  
Heating Degree Days 29    
Moisture  
Dew Point 31 °F    
Average Humidity 82    
Maximum Humidity 93    
Minimum Humidity 50    
Precipitation  
Precipitation 0.00 in - - ()
Sea Level Pressure  
Sea Level Pressure 30.24 in    
Wind  
Wind Speed 1 mph (NNW)    
Max Wind Speed 12 mph    
Max Gust Speed -    
Visibility 6 miles    
Events      
Averages and records for this station are not official NWS values.
T = Trace of Precipitation, MM = Missing Value Source: NWS Daily Summary

Daily Weather History Graph

Daily Weather History Graph

Search for Another Location

Airport or City:

Trip Planner

Search our weather history database for the weather conditions in past years. The results will help you decide how hot, cold, wet, or windy it might be!

Date:

Astronomy

Feb. 07, 2012 Rise Set
Actual Time 6:53 AM CST 5:22 PM CST
Civil Twilight 6:26 AM CST 5:49 PM CST
Nautical Twilight 5:54 AM CST 6:21 PM CST
Astronomical Twilight 5:23 AM CST 6:52 PM CST
Moon 5:32 PM CST (2/7) 6:22 AM CST (2/7)
Length of Visible Light 11h 23m
Length of Day
10h 28m
Full, 100% of the Moon is Illuminated
Feb 7
Full
Feb 7
Full
Feb 14
Last Quarter
Feb 21
New
Feb 29
First Quarter

Hourly Weather History & Observations

Time (CST) Temp. Windchill Dew Point Humidity Pressure Visibility Wind Dir Wind Speed Gust Speed Precip Events Conditions
12:15 AM 30.2 °F - 28.4 °F 93% 30.23 in 5.0 mi Calm Calm - N/A   Clear
12:35 AM 28.4 °F - 26.6 °F 93% 30.23 in 5.0 mi Calm Calm - N/A   Clear
12:55 AM 30.2 °F - 26.6 °F 86% 30.23 in 5.0 mi Calm Calm - N/A   Clear
1:15 AM 28.4 °F - 26.6 °F 93% 30.22 in 4.0 mi Calm Calm - N/A   Clear
1:35 AM 28.4 °F - 26.6 °F 93% 30.22 in 4.0 mi Calm Calm - N/A   Clear
1:55 AM 28.4 °F - 26.6 °F 93% 30.22 in 4.0 mi Calm Calm - N/A   Clear
2:15 AM 28.4 °F - 26.6 °F 93% 30.23 in 4.0 mi Calm Calm - N/A   Clear
2:35 AM 28.4 °F - 26.6 °F 93% 30.22 in 3.0 mi Calm Calm - N/A   Clear
2:55 AM 28.4 °F - 26.6 °F 93% 30.22 in 2.5 mi Calm Calm - N/A   Clear
3:15 AM 26.6 °F - 24.8 °F 93% 30.21 in 4.0 mi Calm Calm - N/A   Clear
3:35 AM 28.4 °F - 26.6 °F 93% 30.22 in 3.0 mi Calm Calm - N/A   Clear
3:55 AM 28.4 °F - 26.6 °F 93% 30.21 in 3.0 mi Calm Calm - N/A   Clear
4:15 AM 28.4 °F - 26.6 °F 93% 30.21 in 2.5 mi Calm Calm - N/A   Clear
4:35 AM 28.4 °F - 26.6 °F 93% 30.21 in 3.0 mi Calm Calm - N/A   Clear
4:55 AM 26.6 °F - 24.8 °F 93% 30.21 in 2.5 mi Calm Calm - N/A   Clear
5:15 AM 26.6 °F - 24.8 °F 93% 30.21 in 3.0 mi Calm Calm - N/A   Clear
5:35 AM 26.6 °F - 24.8 °F 93% 30.21 in 3.0 mi Calm Calm - N/A   Clear
5:55 AM 28.4 °F - 26.6 °F 93% 30.22 in 2.5 mi Calm Calm - N/A   Clear
6:15 AM 24.8 °F - 23.0 °F 93% 30.22 in 3.0 mi Calm Calm - N/A   Clear
6:35 AM 26.6 °F - 24.8 °F 93% 30.23 in 4.0 mi Calm Calm - N/A   Clear
6:55 AM 26.6 °F - 24.8 °F 93% 30.23 in 3.0 mi Calm Calm - N/A   Clear
7:15 AM 26.6 °F - 24.8 °F 93% 30.25 in 4.0 mi Calm Calm - N/A   Clear
7:35 AM 28.4 °F - 26.6 °F 93% 30.27 in 3.0 mi Calm Calm - N/A   Clear
7:55 AM 30.2 °F - 26.6 °F 86% 30.27 in 3.0 mi Calm Calm - N/A   Clear
8:15 AM 30.2 °F - 28.4 °F 93% 30.27 in 3.0 mi Calm Calm - N/A   Clear
8:35 AM 32.0 °F - 30.2 °F 93% 30.27 in 3.0 mi Calm Calm - N/A   Clear
8:55 AM 33.8 °F - 30.2 °F 87% 30.27 in 4.0 mi Calm Calm - N/A   Clear
9:15 AM 33.8 °F - 32.0 °F 93% 30.28 in 5.0 mi Calm Calm - N/A   Clear
9:35 AM 37.4 °F - 33.8 °F 87% 30.28 in 7.0 mi Calm Calm - N/A   Clear
9:55 AM 37.4 °F - 35.6 °F 93% 30.28 in 7.0 mi Calm Calm - N/A   Clear
10:15 AM 39.2 °F - 35.6 °F 87% 30.28 in 7.0 mi Calm Calm - N/A   Clear
10:35 AM 41.0 °F - 37.4 °F 87% 30.27 in 10.0 mi Calm Calm - N/A   Clear
10:55 AM 42.8 °F - 35.6 °F 76% 30.27 in 10.0 mi Calm Calm - N/A   Clear
11:15 AM 42.8 °F - 35.6 °F 76% 30.26 in 10.0 mi Calm Calm - N/A   Clear
11:35 AM 44.6 °F - 35.6 °F 71% 30.26 in 10.0 mi Calm Calm - N/A   Clear
11:55 AM 44.6 °F 43.1 °F 35.6 °F 71% 30.25 in 10.0 mi South 3.5 mph - N/A   Clear
12:15 PM 46.4 °F 45.2 °F 35.6 °F 66% 30.24 in 10.0 mi South 3.5 mph - N/A   Unknown
12:35 PM 46.4 °F 45.2 °F 35.6 °F 66% 30.23 in 10.0 mi West 3.5 mph - N/A   Unknown
12:55 PM 46.4 °F 44.3 °F 35.6 °F 66% 30.23 in 10.0 mi WSW 4.6 mph - N/A   Unknown
1:15 PM 46.4 °F 45.2 °F 35.6 °F 66% 30.23 in 10.0 mi SW 3.5 mph - N/A   Clear
1:35 PM 48.2 °F - 35.6 °F 62% 30.23 in 10.0 mi WSW 6.9 mph - N/A   Clear
1:55 PM 46.4 °F 43.5 °F 35.6 °F 66% 30.23 in 10.0 mi WSW 5.8 mph - N/A   Clear
2:15 PM 48.2 °F - 35.6 °F 62% 30.23 in 10.0 mi WSW 4.6 mph - N/A   Clear
2:35 PM 48.2 °F - 35.6 °F 62% 30.23 in 10.0 mi West 3.5 mph - N/A   Clear
2:55 PM 48.2 °F - 35.6 °F 62% 30.23 in 10.0 mi Calm Calm - N/A   Clear
3:15 PM 48.2 °F - 35.6 °F 62% 30.24 in 10.0 mi Calm Calm - N/A   Scattered Clouds
3:35 PM 48.2 °F - 35.6 °F 62% 30.24 in 10.0 mi Calm Calm - N/A   Mostly Cloudy
3:55 PM 48.2 °F - 33.8 °F 58% 30.23 in 10.0 mi Calm Calm - N/A   Overcast
4:15 PM 48.2 °F - 30.2 °F 50% 30.24 in 10.0 mi NW 5.8 mph - N/A   Mostly Cloudy
4:35 PM 48.2 °F - 32.0 °F 54% 30.23 in 10.0 mi NW 3.5 mph - N/A   Scattered Clouds
4:55 PM 46.4 °F 42.4 °F 35.6 °F 66% 30.23 in 10.0 mi North 8.1 mph - N/A   Scattered Clouds
5:15 PM 44.6 °F 39.7 °F 37.4 °F 76% 30.24 in 10.0 mi NNE 9.2 mph - N/A   Mostly Cloudy
5:35 PM 44.6 °F 40.2 °F 37.4 °F 76% 30.25 in 10.0 mi NNE 8.1 mph - N/A   Overcast
6:15 PM 39.2 °F 32.0 °F 35.6 °F 87% 30.26 in 7.0 mi NNE 11.5 mph - N/A   Overcast
6:35 PM 39.2 °F 33.6 °F 35.6 °F 87% 30.26 in 5.0 mi NNE 8.1 mph - N/A   Overcast
6:55 PM 39.2 °F 32.5 °F 35.6 °F 87% 30.26 in 7.0 mi NNE 10.4 mph - N/A   Overcast
7:15 PM 37.4 °F 32.8 °F 33.8 °F 87% 30.27 in 5.0 mi NE 5.8 mph - N/A   Overcast
7:35 PM 37.4 °F 33.8 °F 33.8 °F 87% 30.27 in 5.0 mi NNE 4.6 mph - N/A   Overcast
7:55 PM 37.4 °F 32.8 °F 33.8 °F 87% 30.27 in 7.0 mi NNE 5.8 mph - N/A   Overcast
8:15 PM 37.4 °F 32.1 °F 33.8 °F 87% 30.27 in 7.0 mi NNE 6.9 mph - N/A   Overcast
8:35 PM 37.4 °F 32.8 °F 33.8 °F 87% 30.28 in 7.0 mi North 5.8 mph - N/A   Overcast
8:55 PM 37.4 °F 32.1 °F 33.8 °F 87% 30.28 in 7.0 mi North 6.9 mph - N/A   Overcast
9:15 PM 37.4 °F 32.1 °F 33.8 °F 87% 30.28 in 7.0 mi North 6.9 mph - N/A   Overcast
9:35 PM 37.4 °F 33.8 °F 33.8 °F 87% 30.29 in 7.0 mi North 4.6 mph - N/A   Overcast
9:55 PM 37.4 °F 33.8 °F 33.8 °F 87% 30.29 in 7.0 mi North 4.6 mph - N/A Rain Light Rain
10:15 PM 37.4 °F 33.8 °F 33.8 °F 87% 30.30 in 7.0 mi North 4.6 mph - N/A   Overcast
10:35 PM 37.4 °F 34.9 °F 33.8 °F 87% 30.30 in 5.0 mi NNW 3.5 mph - N/A Rain Rain
10:55 PM 37.4 °F 34.9 °F 33.8 °F 87% 30.30 in 5.0 mi North 3.5 mph - N/A   Light Drizzle
11:15 PM 37.4 °F 33.8 °F 33.8 °F 87% 30.30 in 7.0 mi North 4.6 mph - N/A   Overcast
11:35 PM 37.4 °F 34.9 °F 33.8 °F 87% 30.31 in 7.0 mi NNW 3.5 mph - N/A   Overcast
11:55 PM 37.4 °F 33.8 °F 33.8 °F 87% 30.31 in 5.0 mi North 4.6 mph - N/A   Light Drizzle